Clarksburg, WV

2:25 AM EST on December 16, 2019 (GMT -0500)
Benedum

Weather History for KCKB - October, 2019

Change the Weather History Date:

Tuesday, October 15, 2019

  Actual Average Record
Temperature  
Mean Temperature 56 °F -  
Max Temperature 77 °F 67 °F 85 °F (1954)
Min Temperature 37 °F 40 °F 24 °F (1939)
Degree Days  
Heating Degree Days 9    
Growing Degree Days 6 (Base 50)    
Moisture  
Dew Point 36 °F    
Average Humidity 58    
Maximum Humidity 89    
Minimum Humidity 17    
Precipitation  
Precipitation 0.00 in - - ()
Sea Level Pressure  
Sea Level Pressure 30.05 in    
Wind  
Wind Speed 1 mph (SSW)    
Max Wind Speed 7 mph    
Max Gust Speed -    
Visibility 9 miles    
Events Fog    
Averages and records for this station are not official NWS values.
T = Trace of Precipitation, MM = Missing Value Source: NWS Daily Summary

Daily Weather History Graph

Daily Weather History Graph

Search for Another Location

Airport or City:

Astronomy

Oct. 15, 2019 Rise Set
Actual Time 7:30 AM EDT 6:42 PM EDT
Civil Twilight 7:03 AM EDT 7:09 PM EDT
Nautical Twilight 6:32 AM EDT 7:40 PM EDT
Astronomical Twilight 6:01 AM EDT 8:11 PM EDT
Moon 8:01 PM EDT (10/15) 8:59 AM EDT (10/15)
Length of Visible Light 12h 05m
Length of Day
11h 11m
Full, 97% of the Moon is Illuminated
Oct 15
Full
Oct 21
Last Quarter
Oct 27
New
Nov 4
First Quarter
Nov 12
Full

Hourly Weather History & Observations

Time (EDT) Temp. Dew Point Humidity Pressure Visibility Wind Dir Wind Speed Gust Speed Precip Events Conditions
12:53 AM 45.0 °F 39.0 °F 80% 30.12 in 10.0 mi Calm Calm - N/A   Clear
1:53 AM 44.1 °F 37.9 °F 79% 30.12 in 10.0 mi Calm Calm - N/A   Clear
2:53 AM 42.1 °F 37.0 °F 82% 30.12 in 10.0 mi Calm Calm - N/A   Clear
3:53 AM 42.1 °F 36.0 °F 79% 30.12 in 10.0 mi Calm Calm - N/A   Clear
4:53 AM 39.9 °F 36.0 °F 86% 30.13 in 10.0 mi Calm Calm - N/A   Clear
5:53 AM 39.0 °F 35.1 °F 86% 30.14 in 10.0 mi Calm Calm - N/A   Clear
6:25 AM 37.9 °F 34.0 °F 86% 30.15 in 2.5 mi Calm Calm - N/A   Clear
6:33 AM 39.0 °F 35.1 °F 86% 30.15 in 6.0 mi Calm Calm - N/A   Clear
6:53 AM 37.9 °F 35.1 °F 89% 30.15 in 10.0 mi Calm Calm - N/A   Clear
7:53 AM 39.0 °F 35.1 °F 86% 30.15 in 1.5 mi Calm Calm - N/A   Clear
8:01 AM 37.9 °F 35.1 °F 89% 30.15 in 0.2 mi Calm Calm - N/A Fog Fog
8:09 AM 39.0 °F 35.1 °F 86% 30.15 in 10.0 mi Calm Calm - N/A   Clear
8:53 AM 45.0 °F 39.0 °F 80% 30.15 in 10.0 mi Calm Calm - N/A   Clear
9:53 AM 51.1 °F 43.0 °F 74% 30.13 in 10.0 mi Calm Calm - N/A   Clear
10:53 AM 60.1 °F 44.1 °F 55% 30.12 in 10.0 mi Calm Calm - N/A   Clear
11:53 AM 66.9 °F 41.0 °F 39% 30.09 in 10.0 mi Calm Calm - N/A   Clear
12:53 PM 70.0 °F 32.0 °F 25% 30.06 in 10.0 mi Variable 4.6 mph - N/A   Clear
1:53 PM 73.0 °F 30.9 °F 21% 30.02 in 10.0 mi Variable 3.5 mph - N/A   Clear
2:53 PM 75.0 °F 30.0 °F 19% 29.98 in 10.0 mi Variable 4.6 mph - N/A   Clear
3:53 PM 75.9 °F 28.0 °F 17% 29.95 in 10.0 mi SW 6.9 mph - N/A   Clear
4:53 PM 75.9 °F 30.0 °F 19% 29.93 in 10.0 mi SW 4.6 mph - N/A   Clear
5:53 PM 73.9 °F 32.0 °F 21% 29.91 in 10.0 mi SW 5.8 mph - N/A   Clear
6:53 PM 68.0 °F 34.0 °F 28% 29.91 in 10.0 mi Calm Calm - N/A   Clear
7:53 PM 62.1 °F 37.9 °F 41% 29.91 in 10.0 mi SSE 4.6 mph - N/A   Clear
8:53 PM 63.0 °F 37.9 °F 40% 29.89 in 10.0 mi South 4.6 mph - N/A   Clear
9:53 PM 62.1 °F 39.0 °F 43% 29.89 in 10.0 mi Calm Calm - N/A   Clear
10:53 PM 62.1 °F 39.0 °F 43% 29.88 in 10.0 mi Calm Calm - N/A   Clear
11:53 PM 61.0 °F 39.9 °F 46% 29.86 in 10.0 mi Calm Calm - N/A   Clear